Laramie, WY

7:55 AM MST on December 15, 2017 (GMT -0700)
Laramie Regional

Weather History for KLAR - April, 2014

Change the Weather History Date:

Thursday, April 10, 2014

  Actual Average Record
Temperature  
Mean Temperature 46 °F 36 °F  
Max Temperature 58 °F 49 °F 71 °F (1960)
Min Temperature 33 °F 23 °F -5 °F (2013)
Degree Days  
Heating Degree Days 19 29  
Month to date heating degree days 282 299  
Since 1 July heating degree days 7323 7534  
Cooling Degree Days 0 0  
Month to date cooling degree days 0 0  
Year to date cooling degree days 0 0  
Moisture  
Dew Point 19 °F    
Average Humidity 38    
Maximum Humidity 56    
Minimum Humidity 20    
Precipitation  
Precipitation 0.00 in 0.03 in 0.30 in (2016)
Month to date precipitation T 0.27  
Year to date precipitation 1.73 1.46  
Sea Level Pressure  
Sea Level Pressure 29.83 in    
Wind  
Wind Speed 17 mph (West)    
Max Wind Speed 39 mph    
Max Gust Speed 48 mph    
Visibility 10 miles    
Events      
T = Trace of Precipitation, MM = Missing Value Source: NWS Daily Summary

Daily Weather History Graph

Daily Weather History Graph

Search for Another Location

Airport or City:

Trip Planner

Search our weather history database for the weather conditions in past years. The results will help you decide how hot, cold, wet, or windy it might be!

Date:

Astronomy

Apr. 10, 2014 Rise Set
Actual Time 6:30 AM MDT 7:37 PM MDT
Civil Twilight 6:02 AM MDT 8:05 PM MDT
Nautical Twilight 5:28 AM MDT 8:39 PM MDT
Astronomical Twilight 4:53 AM MDT 9:15 PM MDT
Moon 3:21 PM MDT (4/10) 3:58 AM MDT (4/10)
Length of Visible Light 14h 03m
Length of Day
13h 06m
Waxing Gibbous, 80% of the Moon is Illuminated
Apr 10
Waxing Gibbous
Apr 15
Full
Apr 22
Last Quarter
Apr 29
New
May 6
First Quarter

Hourly Weather History & Observations

Time (MDT) Temp. Windchill Dew Point Humidity Pressure Visibility Wind Dir Wind Speed Gust Speed Precip Events Conditions
12:53 AM 48.9 °F - 18.0 °F 29% 29.74 in 10.0 mi West 19.6 mph - N/A   Mostly Cloudy
1:53 AM 44.1 °F 38.6 °F 19.0 °F 37% 29.75 in 10.0 mi West 10.4 mph - N/A   Clear
2:53 AM 37.0 °F 29.3 °F 19.9 °F 50% 29.78 in 10.0 mi WSW 11.5 mph - N/A   Clear
3:53 AM 39.0 °F 32.8 °F 21.0 °F 49% 29.78 in 10.0 mi WSW 9.2 mph - N/A   Clear
4:53 AM 37.9 °F 29.6 °F 21.0 °F 51% 29.80 in 10.0 mi West 13.8 mph 23.0 mph N/A   Partly Cloudy
5:53 AM 36.0 °F 30.3 °F 21.9 °F 57% 29.83 in 10.0 mi WSW 6.9 mph - N/A   Clear
6:53 AM 37.0 °F 32.4 °F 21.9 °F 54% 29.87 in 10.0 mi SW 5.8 mph - N/A   Partly Cloudy
8:53 AM 48.9 °F - 24.1 °F 38% 29.80 in 10.0 mi West 15.0 mph 21.9 mph N/A   Partly Cloudy
9:53 AM 52.0 °F - 21.9 °F 31% 29.81 in 10.0 mi WSW 21.9 mph 27.6 mph N/A   Clear
10:53 AM 53.1 °F - 18.0 °F 25% 29.81 in 10.0 mi WNW 25.3 mph 36.8 mph N/A   Clear
11:53 AM 52.0 °F - 14.0 °F 22% 29.81 in 10.0 mi West 19.6 mph - N/A   Clear
12:53 PM 52.0 °F - 16.0 °F 24% 29.81 in 10.0 mi West 26.5 mph 31.1 mph N/A   Clear
1:53 PM 54.0 °F - 15.1 °F 22% 29.81 in 10.0 mi West 28.8 mph 41.4 mph N/A   Clear
2:53 PM 53.1 °F - 17.1 °F 24% 29.87 in 10.0 mi West 24.2 mph 32.2 mph N/A   Partly Cloudy
3:53 PM 55.0 °F - 18.0 °F 23% 29.83 in 10.0 mi West 35.7 mph 46.0 mph N/A   Clear
4:53 PM 57.0 °F - 18.0 °F 22% 29.81 in 10.0 mi West 34.5 mph 47.2 mph N/A   Clear
5:53 PM 55.9 °F - 16.0 °F 21% 29.84 in 10.0 mi West 38.0 mph 43.7 mph N/A   Clear
6:53 PM 53.1 °F - 17.1 °F 24% 29.87 in 10.0 mi West 23.0 mph 32.2 mph N/A   Clear
7:53 PM 46.0 °F 40.6 °F 19.0 °F 34% 29.91 in 10.0 mi West 11.5 mph - N/A   Clear
8:53 PM 44.1 °F 39.0 °F 18.0 °F 35% 29.89 in 10.0 mi West 9.2 mph - N/A   Clear
9:53 PM 41.0 °F 36.4 °F 19.9 °F 43% 29.91 in 10.0 mi SW 6.9 mph - N/A   Clear
10:53 PM 41.0 °F 34.7 °F 21.0 °F 45% 29.91 in 10.0 mi SW 10.4 mph - N/A   Clear
11:53 PM 42.1 °F 36.6 °F 19.0 °F 40% 29.92 in 10.0 mi WSW 9.2 mph - N/A   Clear